PKDIY WIII-WAHI

Flight info

Callsign PKDIY
Flight time 0h 50m
Altitude 29000
Route PW2C PW CLP
Aircraft B77W/H-SDE1E2E3FGHIJ2J3J4J5M1RWXY/LB1D1

Departure

Time 2026-04-20 17:23
Airport Soekarno-Hatta International Airport (WIII)

Arrival

Time 2026-04-20 18:14
Airport Yogyakarta International Airport (WAHI)
Time Latitude Longitude Altitude Speed Heading
2026-04-20 16:44 -6.11472 106.67362 43 ft 0 kts 68°
2026-04-20 17:13 -6.11476 106.67353 43 ft 2 kts 73°
2026-04-20 17:13 -6.11480 106.67337 40 ft 2 kts 79°
2026-04-20 17:13 -6.11482 106.67321 38 ft 2 kts 89°
2026-04-20 17:13 -6.11481 106.67304 38 ft 2 kts 103°
2026-04-20 17:14 -6.11476 106.67289 39 ft 2 kts 121°
2026-04-20 17:14 -6.11466 106.67276 37 ft 2 kts 139°
2026-04-20 17:14 -6.11452 106.67266 40 ft 2 kts 153°
2026-04-20 17:14 -6.11444 106.67262 40 ft 0 kts 158°
2026-04-20 17:16 -6.11446 106.67263 40 ft 1 kts 158°
2026-04-20 17:16 -6.11451 106.67265 40 ft 1 kts 158°
2026-04-20 17:16 -6.11466 106.67271 38 ft 5 kts 158°
2026-04-20 17:17 -6.11514 106.67290 43 ft 9 kts 159°
2026-04-20 17:17 -6.11577 106.67315 43 ft 11 kts 159°
2026-04-20 17:17 -6.11628 106.67364 43 ft 12 kts 97°
2026-04-20 17:17 -6.11604 106.67445 43 ft 13 kts 67°
2026-04-20 17:18 -6.11567 106.67534 43 ft 15 kts 68°
2026-04-20 17:18 -6.11529 106.67615 43 ft 8 kts 45°
2026-04-20 17:18 -6.11486 106.67616 43 ft 7 kts 346°
2026-04-20 17:18 -6.11432 106.67596 43 ft 9 kts 339°
2026-04-20 17:19 -6.11366 106.67571 43 ft 11 kts 338°
2026-04-20 17:19 -6.11291 106.67539 43 ft 13 kts 338°
2026-04-20 17:19 -6.11204 106.67504 43 ft 14 kts 338°
2026-04-20 17:19 -6.11107 106.67466 43 ft 16 kts 338°
2026-04-20 17:20 -6.11023 106.67397 43 ft 17 kts 304°
2026-04-20 17:20 -6.10994 106.67285 43 ft 17 kts 265°
2026-04-20 17:20 -6.11009 106.67203 43 ft 9 kts 258°
2026-04-20 17:20 -6.11025 106.67135 43 ft 11 kts 256°
2026-04-20 17:21 -6.11043 106.67057 43 ft 12 kts 256°
2026-04-20 17:21 -6.11036 106.67002 43 ft 12 kts 306°
2026-04-20 17:21 -6.10992 106.66971 44 ft 5 kts 332°
2026-04-20 17:21 -6.10957 106.66946 44 ft 7 kts 312°
2026-04-20 17:22 -6.10931 106.66897 43 ft 9 kts 296°
2026-04-20 17:22 -6.10925 106.66830 43 ft 11 kts 249°
2026-04-20 17:22 -6.10933 106.66810 43 ft 0 kts 248°
2026-04-20 17:23 -6.10935 106.66806 43 ft 6 kts 248°
2026-04-20 17:23 -6.11066 106.66478 42 ft 103 kts 248°
2026-04-20 17:23 -6.11439 106.65540 184 ft 173 kts 249°
2026-04-20 17:23 -6.11882 106.64374 1035 ft 186 kts 248°
2026-04-20 17:24 -6.12222 106.63115 2026 ft 191 kts 271°
2026-04-20 17:24 -6.11908 106.61760 2632 ft 214 kts 288°
2026-04-20 17:24 -6.11433 106.60193 2974 ft 256 kts 287°
2026-04-20 17:24 -6.10901 106.58403 3771 ft 273 kts 287°
2026-04-20 17:25 -6.10357 106.56560 4975 ft 277 kts 287°
2026-04-20 17:25 -6.09806 106.54690 6170 ft 281 kts 287°
2026-04-20 17:25 -6.09239 106.52796 7218 ft 284 kts 290°
2026-04-20 17:25 -6.08191 106.51108 8140 ft 290 kts 318°
2026-04-20 17:26 -6.06444 106.50110 9208 ft 292 kts 346°
2026-04-20 17:26 -6.04427 106.50045 10231 ft 294 kts 13°
2026-04-20 17:26 -6.02486 106.50796 10867 ft 312 kts 32°
2026-04-20 17:26 -6.00883 106.52404 11136 ft 346 kts 60°
2026-04-20 17:27 -6.00177 106.54745 11861 ft 356 kts 82°
2026-04-20 17:27 -5.99872 106.57248 12862 ft 366 kts 83°
2026-04-20 17:27 -5.99578 106.59805 14026 ft 371 kts 83°
2026-04-20 17:27 -5.99267 106.62391 15128 ft 375 kts 83°
2026-04-20 17:28 -5.98932 106.65009 16187 ft 381 kts 82°
2026-04-20 17:28 -5.98575 106.67673 17212 ft 388 kts 82°
2026-04-20 17:28 -5.98202 106.70384 18221 ft 395 kts 82°
2026-04-20 17:28 -5.97816 106.73143 19093 ft 402 kts 82°
2026-04-20 17:29 -5.97424 106.75939 19979 ft 408 kts 82°
2026-04-20 17:29 -5.97025 106.78782 20845 ft 414 kts 82°
2026-04-20 17:29 -5.96907 106.81666 21538 ft 420 kts 97°
2026-04-20 17:29 -5.97743 106.84506 22313 ft 430 kts 114°
2026-04-20 17:30 -5.99389 106.87031 23145 ft 435 kts 131°
2026-04-20 17:30 -6.01506 106.89218 23858 ft 440 kts 134°
2026-04-20 17:30 -6.03700 106.91370 24725 ft 440 kts 135°
2026-04-20 17:30 -6.05884 106.93501 25762 ft 436 kts 135°
2026-04-20 17:31 -6.08033 106.95621 26833 ft 433 kts 135°
2026-04-20 17:31 -6.10168 106.97754 27860 ft 432 kts 134°
2026-04-20 17:31 -6.12293 106.99898 28618 ft 432 kts 134°
2026-04-20 17:31 -6.14406 107.02041 28937 ft 431 kts 134°
2026-04-20 17:32 -6.16517 107.04186 28900 ft 432 kts 134°
2026-04-20 17:32 -6.20742 107.08480 28903 ft 432 kts 134°
2026-04-20 17:33 -6.24963 107.12764 28903 ft 431 kts 134°
2026-04-20 17:33 -6.29184 107.17050 28906 ft 431 kts 134°
2026-04-20 17:34 -6.33400 107.21333 28917 ft 431 kts 134°
2026-04-20 17:34 -6.37616 107.25619 28907 ft 431 kts 134°
2026-04-20 17:35 -6.41837 107.29910 28910 ft 432 kts 134°
2026-04-20 17:35 -6.46064 107.34209 28906 ft 432 kts 134°
2026-04-20 17:36 -6.50288 107.38506 28911 ft 432 kts 134°
2026-04-20 17:36 -6.54517 107.42810 28914 ft 433 kts 134°
2026-04-20 17:37 -6.58531 107.47300 28916 ft 431 kts 126°
2026-04-20 17:37 -6.61852 107.52215 28933 ft 432 kts 122°
2026-04-20 17:38 -6.65137 107.57267 28926 ft 432 kts 123°
2026-04-20 17:38 -6.68466 107.62258 28951 ft 432 kts 123°
2026-04-20 17:39 -6.71883 107.67291 28939 ft 433 kts 124°
2026-04-20 17:39 -6.75265 107.72247 28960 ft 433 kts 124°
2026-04-20 17:40 -6.78670 107.77238 28940 ft 433 kts 124°
2026-04-20 17:40 -6.82075 107.82229 28953 ft 433 kts 124°
2026-04-20 17:41 -6.85480 107.87225 28946 ft 432 kts 124°
2026-04-20 17:41 -6.88880 107.92216 28949 ft 432 kts 124°
2026-04-20 17:42 -6.92279 107.97207 28968 ft 432 kts 124°
2026-04-20 17:42 -6.95677 108.02198 28947 ft 432 kts 124°
2026-04-20 17:43 -6.99076 108.07191 28972 ft 432 kts 124°
2026-04-20 17:43 -7.02475 108.12187 28973 ft 432 kts 124°
2026-04-20 17:44 -7.05874 108.17184 28946 ft 433 kts 124°
2026-04-20 17:44 -7.09300 108.22222 28982 ft 449 kts 124°
2026-04-20 17:44 -7.11101 108.24872 28977 ft 468 kts 124°
2026-04-20 17:45 -7.12965 108.27615 28973 ft 480 kts 124°
2026-04-20 17:45 -7.16758 108.33195 28935 ft 481 kts 124°
2026-04-20 17:46 -7.20520 108.38732 28936 ft 477 kts 124°
2026-04-20 17:46 -7.24262 108.44241 28936 ft 476 kts 124°
2026-04-20 17:47 -7.28003 108.49752 28933 ft 477 kts 124°
2026-04-20 17:47 -7.31751 108.55274 28933 ft 479 kts 124°
2026-04-20 17:48 -7.35514 108.60821 28922 ft 480 kts 124°
2026-04-20 17:48 -7.39283 108.66380 28919 ft 481 kts 124°
2026-04-20 17:48 -7.41144 108.69123 28899 ft 466 kts 124°
2026-04-20 17:49 -7.42937 108.71768 28895 ft 447 kts 124°
2026-04-20 17:49 -7.44661 108.74311 28903 ft 434 kts 124°
2026-04-20 17:49 -7.46360 108.76818 28914 ft 432 kts 124°
2026-04-20 17:50 -7.49750 108.81823 28917 ft 433 kts 124°
2026-04-20 17:50 -7.53122 108.86803 28906 ft 433 kts 124°
2026-04-20 17:51 -7.56519 108.91822 28879 ft 434 kts 124°
2026-04-20 17:51 -7.58246 108.94373 28106 ft 445 kts 124°
2026-04-20 17:51 -7.59986 108.96945 27570 ft 442 kts 124°
2026-04-20 17:51 -7.61710 108.99493 27023 ft 439 kts 124°
2026-04-20 17:52 -7.63421 109.02022 26489 ft 435 kts 124°
2026-04-20 17:52 -7.65081 109.04555 25964 ft 431 kts 121°
2026-04-20 17:52 -7.66626 109.07128 25426 ft 428 kts 120°
2026-04-20 17:52 -7.68134 109.09702 24912 ft 424 kts 120°
2026-04-20 17:53 -7.69591 109.12209 24393 ft 405 kts 120°
2026-04-20 17:53 -7.71006 109.14644 23923 ft 401 kts 120°
2026-04-20 17:53 -7.72418 109.17066 23423 ft 401 kts 120°
2026-04-20 17:53 -7.73830 109.19483 22861 ft 399 kts 120°
2026-04-20 17:54 -7.75238 109.21887 22355 ft 397 kts 120°
2026-04-20 17:54 -7.76637 109.24273 21861 ft 394 kts 120°
2026-04-20 17:54 -7.78028 109.26642 21381 ft 391 kts 120°
2026-04-20 17:54 -7.79405 109.28987 20905 ft 384 kts 120°
2026-04-20 17:55 -7.80740 109.31260 20437 ft 373 kts 120°
2026-04-20 17:55 -7.82058 109.33507 19988 ft 371 kts 120°
2026-04-20 17:55 -7.83373 109.35747 19531 ft 370 kts 120°
2026-04-20 17:55 -7.84678 109.37973 19071 ft 369 kts 120°
2026-04-20 17:56 -7.85985 109.40201 18597 ft 368 kts 120°
2026-04-20 17:56 -7.87285 109.42417 18135 ft 367 kts 120°
2026-04-20 17:56 -7.88582 109.44628 17599 ft 365 kts 120°
2026-04-20 17:56 -7.89869 109.46823 17154 ft 362 kts 120°
2026-04-20 17:57 -7.91122 109.48959 16801 ft 344 kts 120°
2026-04-20 17:57 -7.92318 109.50998 16408 ft 334 kts 119°
2026-04-20 17:57 -7.93494 109.53005 16012 ft 332 kts 119°
2026-04-20 17:57 -7.94667 109.55007 15595 ft 331 kts 119°
2026-04-20 17:58 -7.95836 109.57004 15160 ft 330 kts 119°
2026-04-20 17:58 -7.97002 109.58995 14742 ft 329 kts 119°
2026-04-20 17:58 -7.98168 109.60986 14286 ft 329 kts 119°
2026-04-20 17:58 -7.99333 109.62976 13859 ft 329 kts 119°
2026-04-20 17:59 -8.00497 109.64962 13386 ft 329 kts 119°
2026-04-20 17:59 -8.01660 109.66949 12914 ft 328 kts 119°
2026-04-20 17:59 -8.02817 109.68926 12503 ft 326 kts 119°
2026-04-20 17:59 -8.03961 109.70879 12135 ft 322 kts 119°
2026-04-20 18:00 -8.05097 109.72821 11723 ft 320 kts 119°
2026-04-20 18:00 -8.06210 109.74723 11312 ft 319 kts 119°
2026-04-20 18:00 -8.07351 109.76673 10883 ft 317 kts 119°
2026-04-20 18:00 -8.08470 109.78585 10497 ft 315 kts 119°
2026-04-20 18:01 -8.09565 109.80457 10403 ft 303 kts 119°
2026-04-20 18:01 -8.10601 109.82228 10321 ft 291 kts 119°
2026-04-20 18:01 -8.11616 109.83963 10122 ft 285 kts 119°
2026-04-20 18:01 -8.12626 109.85692 9727 ft 284 kts 119°
2026-04-20 18:02 -8.13619 109.87392 9346 ft 270 kts 119°
2026-04-20 18:02 -8.14539 109.88964 9042 ft 257 kts 119°
2026-04-20 18:02 -8.15431 109.90490 8786 ft 252 kts 119°
2026-04-20 18:02 -8.16329 109.92028 8488 ft 259 kts 119°
2026-04-20 18:03 -8.17256 109.93615 8328 ft 261 kts 120°
2026-04-20 18:03 -8.18095 109.95179 8163 ft 246 kts 108°
2026-04-20 18:03 -8.18239 109.96844 8058 ft 236 kts 79°
2026-04-20 18:03 -8.17630 109.98356 7836 ft 237 kts 56°
2026-04-20 18:04 -8.16471 109.99585 7538 ft 248 kts 38°
2026-04-20 18:04 -8.14895 110.00317 7199 ft 254 kts 17°
2026-04-20 18:04 -8.13155 110.00695 6847 ft 256 kts
2026-04-20 18:04 -8.11419 110.00343 6494 ft 259 kts 333°
2026-04-20 18:05 -8.08324 109.98474 5787 ft 262 kts 330°
2026-04-20 18:05 -8.06757 109.97533 5486 ft 262 kts 330°
2026-04-20 18:05 -8.05193 109.96595 5228 ft 260 kts 330°
2026-04-20 18:06 -8.03692 109.95692 5112 ft 242 kts 330°
2026-04-20 18:06 -8.02278 109.94843 4762 ft 235 kts 330°
2026-04-20 18:06 -8.01339 109.94281 4353 ft 238 kts 330°
2026-04-20 18:06 -7.99462 109.93156 3793 ft 229 kts 330°
2026-04-20 18:07 -7.98568 109.92620 3575 ft 222 kts 330°
2026-04-20 18:07 -7.97262 109.91837 3309 ft 219 kts 330°
2026-04-20 18:07 -7.95962 109.91060 3054 ft 213 kts 330°
2026-04-20 18:07 -7.94709 109.90309 2741 ft 205 kts 330°
2026-04-20 18:08 -7.93500 109.89607 2496 ft 195 kts 338°
2026-04-20 18:08 -7.92209 109.89252 2416 ft 192 kts 350°
2026-04-20 18:08 -7.90896 109.88962 2234 ft 192 kts 348°
2026-04-20 18:08 -7.89614 109.88701 2068 ft 182 kts 359°
2026-04-20 18:09 -7.88473 109.89027 1938 ft 168 kts 37°
2026-04-20 18:09 -7.87681 109.89843 1860 ft 158 kts 53°
2026-04-20 18:09 -7.87035 109.90697 1773 ft 146 kts 54°
2026-04-20 18:09 -7.86438 109.91510 1629 ft 142 kts 58°
2026-04-20 18:10 -7.86146 109.92426 1533 ft 139 kts 98°
2026-04-20 18:10 -7.86403 109.93375 1517 ft 144 kts 102°
2026-04-20 18:10 -7.86585 109.94381 1420 ft 145 kts 103°
2026-04-20 18:10 -7.86823 109.95352 1371 ft 141 kts 105°
2026-04-20 18:11 -7.87116 109.96300 1313 ft 141 kts 109°
2026-04-20 18:11 -7.87445 109.97233 1320 ft 143 kts 110°
2026-04-20 18:11 -7.87783 109.98174 1299 ft 143 kts 110°
2026-04-20 18:11 -7.88132 109.99131 1101 ft 145 kts 110°
2026-04-20 18:12 -7.88474 110.00074 910 ft 142 kts 110°
2026-04-20 18:12 -7.88813 110.01009 735 ft 141 kts 111°
2026-04-20 18:12 -7.89143 110.01912 573 ft 138 kts 111°
2026-04-20 18:12 -7.89474 110.02833 368 ft 136 kts 111°
2026-04-20 18:13 -7.89795 110.03721 161 ft 134 kts 111°
2026-04-20 18:13 -7.90117 110.04606 51 ft 135 kts 112°
2026-04-20 18:13 -7.90420 110.05406 37 ft 107 kts 109°
2026-04-20 18:13 -7.90605 110.05932 42 ft 55 kts 110°
2026-04-20 18:14 -7.90665 110.06186 38 ft 25 kts 89°
2026-04-20 18:14 -7.90640 110.06334 40 ft 17 kts 77°
2026-04-20 18:14 -7.90618 110.06448 38 ft 17 kts 62°
2026-04-20 18:14 -7.90535 110.06494 40 ft 12 kts 20°
2026-04-20 18:15 -7.90457 110.06494 42 ft 12 kts 317°
2026-04-20 18:15 -7.90425 110.06424 42 ft 11 kts 291°
2026-04-20 18:15 -7.90395 110.06342 42 ft 13 kts 290°
2026-04-20 18:15 -7.90365 110.06261 43 ft 11 kts 291°
2026-04-20 18:16 -7.90334 110.06180 43 ft 13 kts 291°
2026-04-20 18:16 -7.90301 110.06092 43 ft 10 kts 291°
2026-04-20 18:16 -7.90262 110.06075 43 ft 7 kts
2026-04-20 18:16 -7.90228 110.06086 43 ft 1 kts 21°
2026-04-20 18:17 -7.90212 110.06092 43 ft 4 kts 21°
2026-04-20 18:17 -7.90205 110.06095 43 ft 0 kts 21°